Weather History for Wright-Patt AFB, OH

Change the Weather History Date:

Monday, December 10, 2012

  Actual Average Record
Temperature  
Mean Temperature 44 °F -  
Max Temperature 55 °F 41 °F 55 °F (1996)
Min Temperature 32 °F 27 °F 15 °F (2011)
Degree Days  
Heating Degree Days 22    
Moisture  
Dew Point 37 °F    
Average Humidity 83    
Maximum Humidity 100    
Minimum Humidity 68    
Precipitation  
Precipitation 0.03 in - - ()
Sea Level Pressure  
Sea Level Pressure 29.75 in    
Wind  
Wind Speed 11 mph (West)    
Max Wind Speed 14 mph    
Max Gust Speed 21 mph    
Visibility 9 miles    
Events Snow    
Averages and records for this station are not official NWS values.
T = Trace of Precipitation, MM = Missing Value Source: NWS Daily Summary

Daily Weather History Graph

Daily Weather History Graph

Search for Another Location

Airport:

Trip Planner

Search our weather history database for the weather conditions in past years. The results will help you decide how hot, cold, wet, or windy it might be!

Date:

Astronomy

Dec. 10, 2012 Rise Set
Actual Time 7:46 AM EST 5:11 PM EST
Civil Twilight 7:16 AM EST 5:41 PM EST
Nautical Twilight 6:42 AM EST 6:15 PM EST
Astronomical Twilight 6:09 AM EST 6:48 PM EST
Moon 4:29 AM EST (12/10) 2:59 PM EST (12/10)
Length of Visible Light 10h 25m
Length of Day
9h 24m
Waning Crescent, 10% of the Moon is Illuminated
Dec 10
Waning Crescent
Dec 13
New
Dec 20
First Quarter
Dec 28
Full
Jan 4
Last Quarter

Hourly Weather History & Observations

Time (EST) Temp. Windchill Dew Point Humidity Pressure Visibility Wind Dir Wind Speed Gust Speed Precip Events Conditions
12:22 AM 55.4 °F - 51.8 °F 88% 29.68 in 10.0 mi South 13.8 mph - N/A   Overcast
12:34 AM 55.4 °F - 51.8 °F 88% 29.68 in 10.0 mi SSW 10.4 mph - N/A   Mostly Cloudy
12:43 AM 55.4 °F - 51.8 °F 88% 29.68 in 10.0 mi SSW 10.4 mph - N/A   Mostly Cloudy
12:55 AM 55.2 °F - 51.4 °F 87% 29.67 in 10.0 mi SSW 11.5 mph - 0.02 in   Overcast
1:04 AM 55.4 °F - 51.8 °F 88% 29.68 in 10.0 mi SSW 8.1 mph - N/A   Overcast
1:46 AM 55.4 °F - 51.8 °F 88% 29.67 in 10.0 mi SSW 9.2 mph - N/A   Overcast
1:55 AM 55.0 °F - 52.5 °F 91% 29.68 in 10.0 mi SW 11.5 mph - N/A   Overcast
2:21 AM 53.6 °F - 53.6 °F 100% 29.69 in 10.0 mi West 11.5 mph - N/A   Light Drizzle
2:35 AM 51.8 °F - 50.0 °F 94% 29.68 in 10.0 mi WNW 10.4 mph - N/A   Overcast
2:47 AM 51.8 °F - 50.0 °F 94% 29.68 in 6.0 mi WNW 9.2 mph - N/A   Overcast
2:52 AM 51.8 °F - 50.0 °F 94% 29.68 in 2.0 mi WNW 8.1 mph - N/A   Overcast
2:55 AM 51.8 °F - 50.2 °F 94% 29.68 in 2.0 mi WNW 8.1 mph - 0.00 in   Light Drizzle
3:47 AM 50.0 °F - 50.0 °F 100% 29.69 in 3.0 mi West 11.5 mph - N/A   Light Drizzle
3:55 AM 49.3 °F - 48.2 °F 96% 29.69 in 3.0 mi West 13.8 mph - 0.00 in   Light Drizzle
4:55 AM 48.0 °F - 47.1 °F 97% 29.69 in 10.0 mi West 6.9 mph - 0.01 in   Overcast
5:33 AM 46.4 °F 41.5 °F 46.4 °F 100% 29.69 in 7.0 mi West 10.4 mph - N/A   Overcast
5:47 AM 46.4 °F 41.5 °F 44.6 °F 93% 29.69 in 10.0 mi West 10.4 mph - N/A   Overcast
5:52 AM 46.4 °F 41.9 °F 44.6 °F 93% 29.68 in 10.0 mi West 9.2 mph - N/A   Overcast
5:55 AM 46.0 °F 41.0 °F 43.9 °F 92% 29.68 in 10.0 mi West 10.4 mph - N/A   Overcast
6:17 AM 46.4 °F 41.1 °F 42.8 °F 87% 29.70 in 10.0 mi WNW 11.5 mph - N/A   Overcast
6:41 AM 42.8 °F 36.6 °F 39.2 °F 87% 29.70 in 10.0 mi WNW 11.5 mph - N/A   Overcast
6:55 AM 43.2 °F 37.4 °F 39.4 °F 86% 29.70 in 10.0 mi WNW 10.4 mph - N/A   Overcast
7:28 AM 42.8 °F 38.0 °F 39.2 °F 87% 29.70 in 10.0 mi WNW 8.1 mph - N/A   Overcast
7:44 AM 41.0 °F 33.5 °F 37.4 °F 87% 29.72 in 10.0 mi WNW 13.8 mph - N/A   Overcast
7:55 AM 41.2 °F 35.0 °F 36.3 °F 83% 29.71 in 10.0 mi WNW 10.4 mph - N/A   Overcast
8:21 AM 41.0 °F 34.3 °F 35.6 °F 81% 29.73 in 10.0 mi WNW 11.5 mph - N/A   Overcast
8:42 AM 41.0 °F 34.7 °F 33.8 °F 76% 29.73 in 10.0 mi WNW 10.4 mph - N/A   Overcast
8:55 AM 40.1 °F 33.6 °F 34.0 °F 79% 29.73 in 10.0 mi West 10.4 mph - N/A   Overcast
9:25 AM 39.2 °F 34.2 °F 32.0 °F 75% 29.73 in 10.0 mi WNW 6.9 mph - N/A   Overcast
9:55 AM 39.9 °F 32.9 °F 31.3 °F 71% 29.74 in 10.0 mi WNW 11.5 mph - N/A   Overcast
10:55 AM 40.1 °F 33.6 °F 30.6 °F 69% 29.72 in 10.0 mi WNW 10.4 mph - N/A   Overcast
11:55 AM 40.3 °F 34.9 °F 30.4 °F 68% 29.73 in 10.0 mi West 8.1 mph - N/A   Overcast
12:34 PM 39.2 °F 31.6 °F 32.0 °F 75% 29.73 in 10.0 mi WNW 12.7 mph - N/A   Overcast
12:55 PM 38.3 °F 30.1 °F 30.0 °F 72% 29.74 in 10.0 mi West 13.8 mph 20.7 mph N/A   Overcast
1:55 PM 35.1 °F 25.9 °F 27.5 °F 74% 29.73 in 10.0 mi WNW 13.8 mph - N/A   Overcast
2:55 PM 34.2 °F 24.8 °F 25.7 °F 71% 29.76 in 10.0 mi West 13.8 mph - N/A   Overcast
3:22 PM 33.8 °F 25.3 °F 26.6 °F 75% 29.76 in 10.0 mi West 11.5 mph - N/A   Overcast
3:55 PM 33.3 °F 24.6 °F 25.9 °F 74% 29.78 in 10.0 mi West 11.5 mph - N/A   Overcast
4:55 PM 33.1 °F 25.5 °F 25.5 °F 74% 29.79 in 10.0 mi West 9.2 mph - N/A   Overcast
5:37 PM 32.0 °F 25.6 °F 26.6 °F 80% 29.80 in 7.0 mi WSW 6.9 mph - N/A Snow Light Snow
5:55 PM 32.5 °F 26.2 °F 25.7 °F 76% 29.80 in 7.0 mi West 6.9 mph - 0.00 in   Overcast
6:55 PM 32.9 °F 27.5 °F 25.3 °F 74% 29.83 in 10.0 mi West 5.8 mph - N/A   Overcast
7:31 PM 33.8 °F 25.3 °F 26.6 °F 75% 29.84 in 10.0 mi WNW 11.5 mph - N/A   Overcast
7:55 PM 33.1 °F 26.1 °F 25.9 °F 75% 29.86 in 10.0 mi WNW 8.1 mph - N/A   Overcast
8:19 PM 32.0 °F 25.6 °F 26.6 °F 80% 29.87 in 10.0 mi West 6.9 mph - N/A   Overcast
8:32 PM 32.0 °F 23.6 °F 26.6 °F 80% 29.87 in 10.0 mi West 10.4 mph - N/A   Overcast
8:55 PM 32.5 °F 24.2 °F 25.9 °F 76% 29.88 in 10.0 mi West 10.4 mph - N/A   Overcast
9:29 PM 32.0 °F 24.8 °F 26.6 °F 80% 29.89 in 8.0 mi West 8.1 mph - N/A   Overcast
9:44 PM 32.0 °F 24.8 °F 26.6 °F 80% 29.90 in 10.0 mi West 8.1 mph - N/A   Overcast
9:55 PM 32.0 °F 23.6 °F 26.8 °F 81% 29.90 in 10.0 mi West 10.4 mph - N/A   Overcast
10:55 PM 32.0 °F 24.2 °F 27.0 °F 82% 29.93 in 10.0 mi West 9.2 mph - N/A   Overcast
11:55 PM 32.2 °F 25.8 °F 27.1 °F 82% 29.95 in 10.0 mi West 6.9 mph - N/A   Overcast